Time,TemperatureF,DewpointF,PressureIn,WindDirection,WindDirectionDegrees,WindSpeedMPH,WindSpeedGustMPH,Humidity,HourlyPrecipIn,Conditions,Clouds,dailyrainin,SoftwareType,DateUTC
2013-10-14 00:12:00,54.0,43.0,30.32,North,0,0.0,-999.0,66,-99.99,,,-99.99,,2013-10-14 05:12:00,
2013-10-14 00:23:00,55.0,43.0,30.32,East,90,3.0,-999.0,62,-99.99,,,-99.99,,2013-10-14 05:23:00,
2013-10-14 00:52:00,54.0,43.0,30.32,North,0,0.0,-999.0,66,-99.99,,,-99.99,,2013-10-14 05:52:00,
2013-10-14 01:13:00,54.0,43.0,30.32,East,90,3.0,-999.0,66,-99.99,,,-99.99,,2013-10-14 06:13:00,
2013-10-14 01:22:00,54.0,43.0,30.32,North,0,0.0,-999.0,66,-99.99,,,-99.99,,2013-10-14 06:22:00,
2013-10-14 01:52:00,54.0,43.0,30.32,East,80,5.0,-999.0,66,-99.99,,,-99.99,,2013-10-14 06:52:00,
2013-10-14 02:11:00,52.0,43.0,30.31,East,80,5.0,-999.0,71,-99.99,,,-99.99,,2013-10-14 07:11:00,
2013-10-14 02:22:00,52.0,43.0,30.32,East,90,5.0,-999.0,71,-99.99,,,-99.99,,2013-10-14 07:22:00,
2013-10-14 02:52:00,52.0,43.0,30.31,East,100,6.0,-999.0,71,-99.99,,,-99.99,,2013-10-14 07:52:00,
2013-10-14 03:12:00,52.0,43.0,30.31,East,90,7.0,-999.0,71,-99.99,,,-99.99,,2013-10-14 08:12:00,
2013-10-14 03:22:00,52.0,43.0,30.30,East,90,5.0,-999.0,71,-99.99,,,-99.99,,2013-10-14 08:22:00,
2013-10-14 03:52:00,52.0,43.0,30.29,East,80,6.0,-999.0,71,-99.99,,,-99.99,,2013-10-14 08:52:00,
2013-10-14 04:11:00,52.0,43.0,30.29,East,90,6.0,-999.0,71,-99.99,,,-99.99,,2013-10-14 09:11:00,
2013-10-14 04:22:00,50.0,43.0,30.28,East,90,6.0,-999.0,76,-99.99,,,-99.99,,2013-10-14 09:22:00,
2013-10-14 04:53:00,50.0,41.0,30.27,East,90,7.0,-999.0,71,-99.99,,,-99.99,,2013-10-14 09:53:00,
2013-10-14 05:13:00,50.0,41.0,30.27,East,90,7.0,-999.0,71,-99.99,,,-99.99,,2013-10-14 10:13:00,
2013-10-14 05:23:00,52.0,41.0,30.27,East,100,6.0,-999.0,66,-99.99,,,-99.99,,2013-10-14 10:23:00,
2013-10-14 05:53:00,50.0,41.0,30.27,East,90,6.0,-999.0,71,-99.99,,,-99.99,,2013-10-14 10:53:00,
2013-10-14 06:11:00,50.0,41.0,30.27,East,100,6.0,-999.0,71,-99.99,,,-99.99,,2013-10-14 11:11:00,
2013-10-14 06:22:00,52.0,39.0,30.27,ESE,110,6.0,-999.0,61,-99.99,,,-99.99,,2013-10-14 11:22:00,
2013-10-14 06:52:00,52.0,41.0,30.27,ESE,120,5.0,-999.0,66,-99.99,,,-99.99,,2013-10-14 11:52:00,
2013-10-14 07:12:00,52.0,41.0,30.27,ESE,110,7.0,-999.0,66,-99.99,,,-99.99,,2013-10-14 12:12:00,
2013-10-14 07:22:00,52.0,39.0,30.25,East,100,8.0,-999.0,61,-99.99,,,-99.99,,2013-10-14 12:22:00,
2013-10-14 07:52:00,52.0,39.0,30.25,ESE,110,8.0,-999.0,61,-99.99,,,-99.99,,2013-10-14 12:52:00,
2013-10-14 08:11:00,52.0,39.0,30.25,East,100,8.0,-999.0,61,-99.99,,,-99.99,,2013-10-14 13:11:00,
2013-10-14 08:21:00,52.0,39.0,30.25,ESE,110,8.0,-999.0,61,-99.99,,,-99.99,,2013-10-14 13:21:00,
2013-10-14 08:52:00,52.0,41.0,30.26,ESE,110,6.0,-999.0,66,-99.99,,,-99.99,,2013-10-14 13:52:00,
2013-10-14 09:11:00,52.0,41.0,30.26,ESE,110,8.0,-999.0,66,-99.99,,,-99.99,,2013-10-14 14:11:00,
2013-10-14 09:22:00,54.0,41.0,30.26,ESE,120,7.0,-999.0,62,-99.99,,,-99.99,,2013-10-14 14:22:00,
2013-10-14 09:52:00,55.0,41.0,30.25,ESE,120,7.0,-999.0,58,-99.99,,,-99.99,,2013-10-14 14:52:00,
2013-10-14 10:11:00,55.0,41.0,30.25,SE,130,9.0,-999.0,58,-99.99,,,-99.99,,2013-10-14 15:11:00,
2013-10-14 10:21:00,57.0,43.0,30.24,SE,130,8.0,-999.0,58,-99.99,,,-99.99,,2013-10-14 15:21:00,
2013-10-14 10:54:00,59.0,43.0,30.23,SE,130,10.0,-999.0,54,-99.99,,,-99.99,,2013-10-14 15:54:00,
2013-10-14 11:13:00,59.0,43.0,30.23,SE,130,9.0,-999.0,54,-99.99,,,-99.99,,2013-10-14 16:13:00,
2013-10-14 11:23:00,59.0,43.0,30.20,ESE,120,12.0,18.0,54,-99.99,,,-99.99,,2013-10-14 16:23:00,
2013-10-14 11:53:00,61.0,43.0,30.20,SE,140,12.0,20.0,51,-99.99,,,-99.99,,2013-10-14 16:53:00,
2013-10-14 12:12:00,61.0,43.0,30.20,SE,140,12.0,20.0,51,-99.99,,,-99.99,,2013-10-14 17:12:00,
2013-10-14 12:22:00,63.0,45.0,30.20,SE,140,14.0,17.0,51,-99.99,,,-99.99,,2013-10-14 17:22:00,
2013-10-14 12:52:00,63.0,46.0,30.20,SE,130,7.0,-999.0,55,-99.99,,,-99.99,,2013-10-14 17:52:00,
2013-10-14 13:12:00,63.0,46.0,30.20,SE,140,10.0,-999.0,55,-99.99,,,-99.99,,2013-10-14 18:12:00,
2013-10-14 13:22:00,63.0,46.0,30.18,SE,140,8.0,-999.0,55,-99.99,,,-99.99,,2013-10-14 18:22:00,
2013-10-14 13:52:00,64.0,48.0,30.17,SE,140,6.0,-999.0,55,-99.99,,,-99.99,,2013-10-14 18:52:00,
2013-10-14 14:11:00,64.0,48.0,30.17,SE,140,7.0,-999.0,55,-99.99,,,-99.99,,2013-10-14 19:11:00,
2013-10-14 14:22:00,64.0,50.0,30.14,SE,140,7.0,-999.0,59,-99.99,,,-99.99,,2013-10-14 19:22:00,
2013-10-14 14:52:00,66.0,52.0,30.13,SE,130,7.0,-999.0,59,-99.99,,,-99.99,,2013-10-14 19:52:00,
2013-10-14 15:11:00,66.0,52.0,30.13,SE,140,7.0,-999.0,59,-99.99,,,-99.99,,2013-10-14 20:11:00,
2013-10-14 15:22:00,66.0,54.0,30.12,SE,130,7.0,-999.0,63,-99.99,,,-99.99,,2013-10-14 20:22:00,
2013-10-14 15:52:00,66.0,55.0,30.11,SE,140,7.0,-999.0,68,-99.99,,,-99.99,,2013-10-14 20:52:00,
2013-10-14 16:12:00,66.0,55.0,30.11,ESE,120,9.0,-999.0,68,-99.99,,,-99.99,,2013-10-14 21:12:00,
2013-10-14 16:22:00,66.0,55.0,30.10,SE,130,8.0,-999.0,68,-99.99,,,-99.99,,2013-10-14 21:22:00,
2013-10-14 16:54:00,66.0,55.0,30.09,ESE,120,7.0,-999.0,68,-99.99,,,-99.99,,2013-10-14 21:54:00,
2013-10-14 17:13:00,66.0,55.0,30.09,SE,130,7.0,-999.0,68,-99.99,,,-99.99,,2013-10-14 22:13:00,
2013-10-14 17:24:00,64.0,55.0,30.08,SE,130,6.0,-999.0,72,-99.99,,,-99.99,,2013-10-14 22:24:00,
2013-10-14 17:54:00,64.0,57.0,30.08,SE,130,7.0,-999.0,77,-99.99,,,-99.99,,2013-10-14 22:54:00,
2013-10-14 18:12:00,64.0,57.0,30.08,SE,130,7.0,-999.0,77,-99.99,,,-99.99,,2013-10-14 23:12:00,
2013-10-14 18:22:00,64.0,57.0,30.07,ESE,120,8.0,-999.0,77,-99.99,,,-99.99,,2013-10-14 23:22:00,
2013-10-14 18:52:00,64.0,57.0,30.07,SE,130,7.0,-999.0,77,-99.99,,,-99.99,,2013-10-14 23:52:00,
2013-10-14 19:12:00,63.0,57.0,30.07,SE,130,7.0,-999.0,82,-99.99,,,-99.99,,2013-10-15 00:12:00,
2013-10-14 19:22:00,63.0,57.0,30.07,SE,130,9.0,-999.0,82,-99.99,,,-99.99,,2013-10-15 00:22:00,
2013-10-14 19:52:00,63.0,57.0,30.06,SE,130,8.0,-999.0,82,-99.99,,,-99.99,,2013-10-15 00:52:00,
2013-10-14 20:12:00,63.0,57.0,30.06,SE,140,8.0,-999.0,82,-99.99,,,-99.99,,2013-10-15 01:12:00,
2013-10-14 20:22:00,63.0,57.0,30.05,SE,130,8.0,-999.0,82,-99.99,,,-99.99,,2013-10-15 01:22:00,
2013-10-14 20:52:00,63.0,57.0,30.05,SE,140,8.0,-999.0,82,-99.99,,,-99.99,,2013-10-15 01:52:00,
2013-10-14 21:12:00,63.0,59.0,30.05,SE,140,8.0,-999.0,88,-99.99,,,-99.99,,2013-10-15 02:12:00,
2013-10-14 21:22:00,63.0,59.0,30.05,SE,140,8.0,-999.0,88,-99.99,,,-99.99,,2013-10-15 02:22:00,
2013-10-14 21:52:00,63.0,59.0,30.05,SE,140,9.0,-999.0,88,-99.99,,,-99.99,,2013-10-15 02:52:00,
2013-10-14 22:02:00,63.0,59.0,30.05,SE,140,9.0,-999.0,88,-99.99,,,-99.99,,2013-10-15 03:02:00,
2013-10-14 22:23:00,63.0,59.0,30.05,SSE,150,10.0,-999.0,88,-99.99,,,-99.99,,2013-10-15 03:23:00,
2013-10-14 22:55:00,63.0,59.0,30.05,SSE,150,9.0,-999.0,88,-99.99,,,-99.99,,2013-10-15 03:55:00,
2013-10-14 23:14:00,63.0,59.0,30.04,SSE,150,9.0,-999.0,88,-99.99,,,-99.99,,2013-10-15 04:14:00,
2013-10-14 23:24:00,63.0,59.0,30.04,SSE,150,10.0,-999.0,88,-99.99,,,-99.99,,2013-10-15 04:24:00,
2013-10-14 23:54:00,63.0,59.0,30.04,SSE,160,10.0,-999.0,88,-99.99,,,-99.99,,2013-10-15 04:54:00,